FW3619 Weather Reports


time (UTC)temp
F
wind
direction
speed
knots
gust
knots
rain 1hr
in
rain 24hr
in
rain mn
in
humidity
%
barometer
mb
20260507040954 52 99 0.0 1.7 0.00 0.24 0.24 94 1011.8
20260507040449 52 82 0.0 1.7 0.00 0.24 0.24 95 1011.6
20260507035945 52 66 0.0 1.7 0.00 0.24 0.24 94 1011.6
20260507035442 53 108 0.0 1.7 0.00 0.24 0.24 95 1011.8
20260507034939 53 106 0.0 1.7 0.00 0.24 0.24 95 1011.7
20260507034436 53 102 0.0 1.7 0.00 0.24 0.24 94 1011.8
20260507033934 53 110 0.9 1.7 0.00 0.24 0.24 94 1011.9
20260507033432 53 102 0.0 0.0 0.00 0.24 0.24 94 1012.0
20260507032928 53 101 0.0 0.0 0.00 0.24 0.24 94 1012.1
20260507032426 53 86 0.0 1.7 0.00 0.24 0.24 94 1012.1
20260507031921 53 101 0.0 1.7 0.00 0.24 0.24 93 1012.0
20260507031418 53 72 0.0 4.3 0.00 0.24 0.24 94 1012.0
20260507030915 53 66 0.0 1.7 0.00 0.24 0.24 94 1012.2
20260507030412 53 106 0.0 1.7 0.00 0.24 0.24 94 1012.0
20260507025909 53 86 0.9 2.6 0.00 0.24 0.24 95 1011.8
20260507025406 53 97 0.0 1.7 0.00 0.24 0.24 94 1011.9
20260507024904 53 47 2.6 6.1 0.00 0.24 0.24 95 1011.7
20260507024401 53 58 3.5 7.8 0.00 0.24 0.24 94 1011.7
20260507023857 54 50 2.6 10.4 0.00 0.24 0.24 94 1011.7
20260507023354 54 327 11.3 14.8 0.00 0.24 0.24 92 1011.8
20260507022851 54 343 9.6 19.1 0.00 0.24 0.24 93 1011.9
20260507022348 54 341 12.2 20.9 0.00 0.24 0.24 95 1011.7
20260507021844 54 334 14.8 19.1 0.00 0.24 0.24 98 1011.4
20260507021339 55 0 6.1 8.7 0.05 0.24 0.24 99 1011.5
20260507020837 56 44 7.0 7.8 0.00 0.23 0.23 99 1011.1
20260507020333 56 36 4.3 8.7 0.00 0.23 0.23 99 1011.1
20260507015830 56 55 4.3 10.4 0.00 0.23 0.23 99 1011.0
20260507015328 57 42 2.6 4.3 0.00 0.23 0.23 99 1011.2
20260507014820 57 328 5.2 6.1 0.00 0.23 0.23 99 1011.0
20260507014316 57 4 6.1 7.8 0.00 0.23 0.23 99 1011.1
20260507013812 57 51 0.0 1.7 0.00 0.23 0.23 99 1011.2
20260507013310 58 89 0.0 1.7 0.00 0.23 0.23 99 1010.8
20260507012807 59 94 0.0 0.0 0.00 0.23 0.23 99 1010.7
20260507012306 59 87 0.0 0.0 0.00 0.23 0.23 99 1010.5
20260507011800 59 63 2.6 2.6 0.00 0.23 0.23 99 1010.2
20260507011257 59 24 3.5 4.3 0.00 0.23 0.23 99 1010.0
20260507010756 59 119 0.0 1.7 0.00 0.23 0.23 99 1010.3
20260507010252 59 140 2.6 6.1 0.00 0.23 0.23 99 1010.1
20260507005750 60 105 0.0 1.7 0.00 0.23 0.23 99 1010.1
20260507005246 60 133 1.7 4.3 0.00 0.23 0.23 99 1010.0
20260507004743 60 120 0.9 6.1 0.07 0.23 0.23 99 1010.1
20260507004241 60 124 0.0 1.7 0.00 0.22 0.22 99 1009.9
20260507003737 60 132 2.6 4.3 0.05 0.22 0.22 99 1009.9
20260507003232 60 116 0.9 1.7 0.00 0.21 0.21 99 1009.6
20260507002728 60 115 0.0 2.6 0.00 0.21 0.21 99 1009.5
20260507002224 59 128 0.9 1.7 0.00 0.21 0.21 99 1009.4
20260507001721 59 122 2.6 4.3 0.00 0.21 0.21 99 1009.7
20260507001219 59 182 2.6 4.3 0.00 0.21 0.21 99 1009.3
20260507000715 60 158 2.6 2.6 0.00 0.21 0.21 99 1009.3
20260507000212 60 112 0.0 1.7 0.00 0.21 0.21 99 1009.4
20260506235708 60 108 0.0 6.1 0.00 0.21 0.21 99 1009.4
20260506235203 59 135 0.0 2.6 0.00 0.21 0.21 99 1009.2
20260506234700 60 109 0.0 1.7 0.00 0.21 0.21 99 1009.0
20260506234158 60 160 2.6 4.3 0.00 0.21 0.21 99 1009.2
20260506233655 60 134 2.6 4.3 0.00 0.21 0.21 99 1009.2
20260506233151 60 95 0.9 7.8 0.00 0.21 0.21 99 1009.4
20260506232648 60 249 4.3 6.1 0.00 0.21 0.21 99 1008.9
20260506232143 60 116 2.6 4.3 0.00 0.21 0.21 99 1009.2
20260506231640 60 95 2.6 6.1 0.00 0.21 0.21 99 1009.0
20260506231139 60 141 2.6 7.8 0.00 0.21 0.21 99 1008.7
20260506230635 60 128 0.9 2.6 0.00 0.21 0.21 99 1009.1
20260506230132 60 100 0.0 2.6 0.00 0.21 0.21 99 1008.7
20260506225629 60 126 2.6 2.6 0.00 0.21 0.21 99 1008.9
20260506225125 60 137 1.7 4.3 0.00 0.21 0.21 99 1008.7
20260506224622 60 114 0.0 6.1 0.00 0.21 0.21 99 1008.9
20260506224118 60 119 0.0 1.7 0.00 0.21 0.21 99 1008.9
20260506223615 60 137 2.6 6.1 0.00 0.21 0.21 99 1009.0
20260506223111 60 126 0.9 1.7 0.00 0.21 0.21 99 1008.8
20260506222608 60 120 2.6 8.7 0.00 0.21 0.21 99 1009.0
20260506222104 60 123 0.9 7.8 0.00 0.21 0.21 99 1008.9
20260506221602 60 104 0.0 4.3 0.00 0.21 0.21 99 1008.9
20260506221100 60 120 1.7 2.6 0.07 0.21 0.21 99 1008.8
20260506220556 60 141 2.6 4.3 0.07 0.21 0.21 99 1008.9
20260506220051 59 166 1.7 7.8 0.05 0.20 0.20 99 1009.1
20260506215548 60 154 2.6 6.1 0.09 0.20 0.20 99 1009.0
20260506215044 59 121 0.9 1.7 0.12 0.19 0.19 99 1009.0
20260506214541 59 121 1.7 4.3 0.12 0.18 0.18 99 1009.1
20260506214038 59 116 0.0 2.6 0.05 0.17 0.17 99 1009.0
20260506213536 60 203 0.0 2.6 0.00 0.16 0.16 99 1008.9
20260506213033 60 179 4.3 7.8 0.00 0.16 0.16 99 1008.9
20260506212530 60 114 0.9 2.6 0.00 0.16 0.16 99 1008.9
20260506212025 60 106 0.0 2.6 0.00 0.16 0.16 99 1009.1
20260506211521 60 132 1.7 1.7 0.00 0.16 0.16 99 1009.1
20260506211018 60 113 0.9 10.4 0.00 0.16 0.16 99 1009.2
20260506210515 60 143 3.5 8.7 0.07 0.16 0.16 99 1009.2
20260506210012 60 113 0.0 7.8 0.07 0.16 0.16 99 1009.2
20260506205508 60 180 2.6 2.6 0.00 0.15 0.15 99 1009.2
20260506205004 60 133 2.6 4.3 0.05 0.15 0.15 99 1009.0
20260506204502 60 116 1.7 7.8 0.05 0.15 0.15 99 1009.2
20260506203959 60 105 0.0 4.3 0.05 0.14 0.14 99 1009.2
20260506203456 60 103 0.9 4.3 0.00 0.13 0.13 99 1009.3
20260506202953 60 106 3.5 7.8 0.07 0.13 0.13 99 1009.5
20260506202450 60 184 2.6 8.7 0.12 0.13 0.13 99 1009.4
20260506201946 60 127 3.5 6.1 0.05 0.12 0.12 99 1009.5
20260506201444 60 167 2.6 6.1 0.00 0.11 0.11 99 1009.5
20260506200940 60 136 0.0 2.6 0.00 0.11 0.11 99 1009.7
20260506200437 59 130 0.9 4.3 0.00 0.11 0.11 99 1009.7
20260506195933 60 107 2.6 6.1 0.00 0.11 0.11 99 1009.8
20260506195430 60 138 7.8 10.4 0.07 0.11 0.11 99 1010.0
20260506194927 60 89 0.0 6.1 0.00 0.10 0.10 99 1009.8
20260506194424 60 142 1.7 2.6 0.00 0.10 0.10 99 1010.0
20260506193921 60 226 4.3 4.3 0.05 0.10 0.10 99 1010.0
20260506193418 60 116 2.6 7.8 0.05 0.10 0.10 99 1010.0
20260506192914 60 118 1.7 12.2 0.00 0.09 0.09 99 1010.1
20260506192411 60 215 3.5 8.7 0.00 0.09 0.09 99 1010.1
20260506191908 60 138 1.7 6.1 0.00 0.09 0.09 99 1010.0
20260506191405 60 187 5.2 10.4 0.07 0.09 0.09 99 1010.0
20260506190902 60 113 1.7 2.6 0.09 0.08 0.08 99 1010.2
20260506190358 60 266 6.1 8.7 0.05 0.07 0.07 99 1010.3
20260506185855 60 144 2.6 4.3 0.00 0.07 0.07 99 1010.5
20260506185352 61 114 0.9 6.1 0.00 0.07 0.07 99 1010.4
20260506184849 61 95 2.6 7.8 0.07 0.07 0.07 99 1010.2
20260506184346 61 206 2.6 8.7 0.07 0.07 0.07 99 1010.3
20260506183844 61 136 0.9 6.1 0.00 0.06 0.06 99 1010.0
20260506183338 61 147 0.9 2.6 0.05 0.06 0.06 99 1010.3
20260506182831 62 108 2.6 12.2 0.00 0.05 0.05 98 1010.3
20260506182327 62 165 1.7 7.8 0.00 0.05 0.05 98 1010.3
20260506181825 62 223 3.5 6.1 0.00 0.05 0.05 97 1010.4
20260506181323 62 306 4.3 6.1 0.00 0.05 0.05 98 1010.4
20260506180820 62 144 2.6 6.1 0.00 0.05 0.05 98 1010.1
20260506180316 62 117 0.9 2.6 0.07 0.05 0.05 98 1009.8
20260506175812 62 111 2.6 4.3 0.07 0.05 0.05 97 1010.3
20260506175309 62 165 1.7 7.8 0.00 0.04 0.04 96 1010.1
20260506174806 63 113 0.0 4.3 0.05 0.04 0.04 96 1010.3
20260506174303 63 168 1.7 2.6 0.05 0.03 0.03 95 1010.4
20260506173801 63 83 0.9 6.1 0.05 0.03 0.03 94 1010.8
20260506173258 64 111 1.7 7.8 0.07 0.02 0.02 93 1010.9
20260506172754 65 103 0.9 6.1 0.12 0.02 0.02 92 1010.7
20260506172251 65 161 2.6 7.8 0.05 0.01 0.01 89 1011.0
20260506171749 66 106 0.0 2.6 0.00 0.00 0.00 88 1011.1
20260506171246 66 204 0.9 2.6 0.00 0.00 0.00 88 1011.2
20260506170743 66 95 1.7 4.3 0.00 0.00 0.00 86 1010.9
20260506170239 67 125 2.6 2.6 0.00 0.00 0.00 84 1011.0
20260506165738 67 113 1.7 4.3 0.00 0.00 0.00 82 1011.1
20260506165235 67 113 0.0 2.6 0.00 0.00 0.00 81 1011.0
20260506164732 68 147 0.9 2.6 0.00 0.00 0.00 80 1010.7
20260506164229 68 210 6.1 8.7 0.00 0.00 0.00 79 1010.8
20260506163726 68 131 2.6 6.1 0.00 0.00 0.00 79 1010.8
20260506163220 69 133 2.6 8.7 0.00 0.00 0.00 77 1011.0
20260506162717 68 208 1.7 4.3 0.00 0.00 0.00 78 1011.0
20260506162215 68 147 2.6 4.3 0.00 0.00 0.00 79 1011.3
20260506161712 68 128 4.3 6.1 0.00 0.00 0.00 79 1011.1
20260506161209 67 241 1.7 4.3 0.00 0.00 0.00 79 1011.3
20260506160706 67 161 3.5 6.1 0.00 0.00 0.00 79 1011.5
20260506160203 67 162 4.3 6.1 0.00 0.00 0.00 80 1011.5
20260506155701 67 130 1.7 6.1 0.00 0.00 0.00 80 1011.5
20260506155158 66 112 0.9 4.3 0.00 0.00 0.00 81 1011.3
20260506153300 66 141 4.3 8.7 0.00 0.00 0.00 82 1011.8
20260506152757 66 110 0.0 7.8 0.00 0.00 0.00 82 1012.0
20260506152254 66 137 4.3 7.8 0.00 0.00 0.00 81 1012.0
20260506151753 66 160 1.7 4.3 0.00 0.00 0.00 82 1012.6
20260506151249 65 131 1.7 2.6 0.00 0.00 0.00 81 1012.6
20260506150746 65 215 3.5 8.7 0.00 0.00 0.00 82 1012.5
20260506150243 65 169 4.3 7.8 0.00 0.00 0.00 83 1012.7
20260506145740 65 248 1.7 6.1 0.00 0.00 0.00 83 1012.6
20260506145236 65 91 0.9 7.8 0.00 0.00 0.00 83 1012.5
20260506144734 64 104 0.9 12.2 0.00 0.00 0.00 84 1012.6
20260506144231 64 233 1.7 4.3 0.00 0.00 0.00 84 1012.3
20260506143728 64 133 0.9 4.3 0.00 0.00 0.00 84 1012.5
20260506143225 64 181 2.6 4.3 0.00 0.00 0.00 84 1012.6
20260506142724 65 119 2.6 8.7 0.00 0.00 0.00 83 1012.5
20260506142222 65 209 6.1 7.8 0.00 0.00 0.00 83 1012.3
20260506141719 65 114 2.6 10.4 0.00 0.00 0.00 83 1012.3
20260506141218 64 115 2.6 4.3 0.00 0.00 0.00 83 1012.2
20260506140715 64 173 2.6 7.8 0.00 0.00 0.00 84 1012.8
20260506140212 65 176 6.1 10.4 0.00 0.00 0.00 83 1012.6
20260506135708 64 123 1.7 6.1 0.00 0.00 0.00 85 1012.5
20260506135205 64 114 0.0 7.8 0.00 0.00 0.00 84 1012.1
20260506134701 64 150 2.6 7.8 0.00 0.00 0.00 84 1012.1
20260506134158 63 167 1.7 4.3 0.00 0.00 0.00 85 1012.1
20260506133655 63 122 1.7 6.1 0.00 0.00 0.00 85 1012.1
20260506133151 63 127 3.5 6.1 0.00 0.00 0.00 85 1012.5
20260506132649 64 111 2.6 13.0 0.00 0.00 0.00 85 1012.1
20260506132146 63 144 3.5 7.8 0.00 0.00 0.00 85 1012.0
20260506131644 63 155 5.2 7.8 0.00 0.00 0.00 85 1012.5
20260506131139 63 127 3.5 7.8 0.00 0.00 0.00 86 1012.7
20260506130636 63 105 0.9 6.1 0.00 0.00 0.00 86 1012.5
20260506130134 63 146 6.1 8.7 0.00 0.00 0.00 85 1012.2
20260506125632 62 139 3.5 4.3 0.00 0.00 0.00 86 1012.8
20260506125129 62 128 1.7 7.8 0.00 0.00 0.00 87 1012.7
20260506124627 62 116 2.6 6.1 0.00 0.00 0.00 87 1012.6
20260506124125 62 111 0.0 7.8 0.00 0.00 0.00 87 1012.9
20260506123622 62 114 0.9 4.3 0.00 0.00 0.00 87 1012.9
20260506123121 62 118 0.9 6.1 0.00 0.00 0.00 87 1012.8
20260506122617 61 116 0.0 7.8 0.00 0.00 0.00 88 1012.9
20260506122115 61 139 2.6 4.3 0.00 0.00 0.00 88 1013.0
20260506121612 61 135 1.7 7.8 0.00 0.00 0.00 89 1013.0
20260506121108 61 146 1.7 4.3 0.00 0.00 0.00 89 1012.9
20260506120606 61 115 0.9 4.3 0.00 0.00 0.00 89 1012.9
20260506120103 61 149 3.5 6.1 0.00 0.00 0.00 89 1013.1
20260506115602 61 115 2.6 6.1 0.00 0.00 0.00 89 1012.9
20260506115100 61 119 0.0 2.6 0.00 0.00 0.00 89 1013.0
20260506114557 61 105 0.9 2.6 0.00 0.00 0.00 89 1012.8
20260506114055 60 148 2.6 6.1 0.00 0.00 0.00 89 1012.9
20260506113552 60 167 3.5 4.3 0.00 0.00 0.00 89 1013.0
20260506113050 60 106 0.0 2.6 0.00 0.00 0.00 90 1012.8
20260506112546 60 114 0.9 6.1 0.00 0.00 0.00 89 1012.9
20260506112043 61 182 2.6 4.3 0.00 0.00 0.00 89 1013.0
20260506111541 61 110 0.0 8.7 0.00 0.00 0.00 88 1013.0
20260506111038 61 104 2.6 6.1 0.00 0.00 0.00 89 1012.8
20260506110536 60 189 3.5 4.3 0.00 0.00 0.00 89 1013.1
20260506110033 59 87 0.9 2.6 0.00 0.00 0.00 91 1013.3
20260506105529 59 98 2.6 7.8 0.00 0.00 0.00 91 1013.1
20260506105026 59 122 0.0 2.6 0.00 0.00 0.00 91 1013.3
20260506104524 59 181 4.3 7.8 0.00 0.00 0.00 90 1013.1
20260506104022 59 187 1.7 2.6 0.00 0.00 0.00 90 1013.3
20260506103519 60 106 0.9 2.6 0.00 0.00 0.00 90 1013.3
20260506103016 59 97 0.9 2.6 0.00 0.00 0.00 90 1013.3
20260506102514 59 132 4.3 6.1 0.00 0.00 0.00 90 1013.2
20260506102011 59 145 0.0 4.3 0.00 0.00 0.00 90 1012.9
20260506101507 59 120 0.0 4.3 0.00 0.00 0.00 91 1012.8
20260506101005 59 117 1.7 1.7 0.00 0.00 0.00 91 1012.9
20260506100503 59 89 1.7 2.6 0.00 0.00 0.00 91 1012.9
20260506100001 59 121 0.0 2.6 0.00 0.00 0.00 91 1012.8
20260506095459 59 142 0.0 2.6 0.00 0.00 0.00 91 1012.9
20260506094955 59 179 4.3 6.1 0.00 0.00 0.00 91 1012.6
20260506094453 59 108 0.0 2.6 0.00 0.00 0.00 91 1012.9
20260506093950 59 139 3.5 4.3 0.00 0.00 0.00 91 1012.9
20260506093449 59 141 2.6 4.3 0.00 0.00 0.00 90 1012.9
20260506092946 59 119 0.0 2.6 0.00 0.00 0.00 90 1012.8
20260506092444 59 116 0.0 2.6 0.00 0.00 0.00 90 1012.9
20260506091940 59 112 0.9 2.6 0.00 0.00 0.00 89 1012.8
20260506091439 59 164 0.0 1.7 0.00 0.00 0.00 89 1013.0
20260506090936 59 118 2.6 12.2 0.00 0.00 0.00 89 1012.9
20260506090433 60 125 1.7 6.1 0.00 0.00 0.00 89 1012.8
20260506085929 60 119 0.0 1.7 0.00 0.00 0.00 89 1012.9
20260506085426 59 168 2.6 7.8 0.00 0.00 0.00 89 1012.8
20260506084922 59 111 0.9 2.6 0.00 0.00 0.00 89 1012.8
20260506084420 60 87 2.6 2.6 0.00 0.00 0.00 88 1012.7
20260506083916 60 120 0.9 2.6 0.00 0.00 0.00 88 1012.9
20260506083413 60 94 2.6 4.3 0.00 0.00 0.00 88 1013.0
20260506082911 60 118 0.0 7.8 0.00 0.00 0.00 88 1012.9
20260506082408 60 120 0.9 1.7 0.00 0.00 0.00 88 1013.1
20260506081903 60 115 2.6 6.1 0.00 0.00 0.00 88 1012.7
20260506081402 60 111 0.0 4.3 0.00 0.00 0.00 88 1012.9
20260506080858 60 206 3.5 8.7 0.00 0.00 0.00 88 1013.1
20260506080355 60 118 1.7 4.3 0.00 0.00 0.00 88 1012.9
20260506073339 60 128 2.6 2.6 0.00 0.00 0.00 87 1012.7
20260506072836 60 106 0.9 2.6 0.00 0.00 0.00 87 1013.0
20260506072334 60 122 0.0 1.7 0.00 0.00 0.00 86 1013.0
20260506071831 60 122 0.9 1.7 0.00 0.00 0.00 86 1012.9
20260506071329 60 122 0.0 0.0 0.00 0.00 0.00 86 1013.0
20260506070826 61 118 0.9 1.7 0.00 0.00 0.00 85 1013.0
20260506070323 61 113 0.9 1.7 0.00 0.00 0.00 85 1012.7
20260506062300 62 109 2.6 2.6 0.00 0.00 0.00 82 1012.6
20260506061756 62 120 0.0 1.7 0.00 0.00 0.00 82 1012.7
20260506061253 62 120 0.9 4.3 0.00 0.00 0.00 81 1012.6
20260506060751 62 122 0.9 1.7 0.00 0.00 0.00 81 1012.8
20260506060249 62 115 0.0 4.3 0.00 0.00 0.00 80 1012.8
20260506051220 63 135 1.7 4.3 0.00 0.00 0.00 77 1013.0
20260506050719 63 108 0.0 6.1 0.00 0.00 0.00 77 1012.9
20260506050215 63 126 1.7 8.7 0.00 0.00 0.00 77 1012.9
20260506044706 63 121 3.5 6.1 0.00 0.00 0.00 77 1012.8
20260506044203 64 134 2.6 2.6 0.00 0.00 0.00 77 1012.9
20260506043701 64 194 2.6 4.3 0.00 0.00 0.00 77 1012.9
20260506043158 63 119 1.7 6.1 0.00 0.00 0.00 76 1013.1
20260506042657 63 114 0.9 6.1 0.00 0.00 0.00 77 1013.2
20260506042155 63 110 2.6 4.3 0.00 0.00 0.00 76 1012.9
20260506041653 64 129 0.9 1.7 0.00 0.00 0.00 76 1013.1
20260506041150 64 107 1.7 2.6 0.00 0.00 0.00 76 1013.1